Time,TemperatureF,DewpointF,PressureIn,WindDirection,WindDirectionDegrees,WindSpeedMPH,WindSpeedGustMPH,Humidity,HourlyPrecipIn,Conditions,Clouds,dailyrainin,SoftwareType,DateUTC
2013-09-18 00:02:00,75.3,71.8,29.98,South,184,0.0,0.0,89,0.00,,SKC,0.00,VWS V14.00,2013-09-18 05:02:00,
2013-09-18 00:07:00,75.2,71.7,29.98,South,184,0.0,0.0,89,0.00,,SKC,0.00,VWS V14.00,2013-09-18 05:07:00,
2013-09-18 00:12:00,75.1,71.6,29.98,South,184,0.0,0.0,89,0.00,,SKC,0.00,VWS V14.00,2013-09-18 05:12:00,
2013-09-18 00:17:00,75.0,71.9,29.98,South,184,0.0,0.0,90,0.00,,SKC,0.00,VWS V14.00,2013-09-18 05:17:00,
2013-09-18 00:22:00,74.8,71.7,29.98,South,184,0.0,0.0,90,0.00,,SKC,0.00,VWS V14.00,2013-09-18 05:22:00,
2013-09-18 00:27:00,74.7,71.6,29.98,South,184,0.0,0.0,90,0.00,,SKC,0.00,VWS V14.00,2013-09-18 05:27:00,
2013-09-18 00:31:00,74.7,71.9,29.99,South,184,0.0,0.0,91,0.00,,SKC,0.00,VWS V14.00,2013-09-18 05:31:00,
2013-09-18 00:36:00,74.6,71.8,29.98,South,184,0.0,0.0,91,0.00,,SKC,0.00,VWS V14.00,2013-09-18 05:36:00,
2013-09-18 00:41:00,74.6,71.8,29.98,South,184,0.0,0.0,91,0.00,,SKC,0.00,VWS V14.00,2013-09-18 05:41:00,
2013-09-18 00:46:00,74.5,71.7,29.98,South,184,0.0,0.0,91,0.00,,SKC,0.00,VWS V14.00,2013-09-18 05:46:00,
2013-09-18 00:51:00,74.3,71.5,29.98,South,184,0.0,0.0,91,0.00,,SKC,0.00,VWS V14.00,2013-09-18 05:51:00,
2013-09-18 00:56:00,74.2,71.4,29.98,South,184,0.0,0.0,91,0.00,,SKC,0.00,VWS V14.00,2013-09-18 05:56:00,
2013-09-18 01:01:00,74.1,71.3,29.98,South,184,0.0,0.0,91,0.00,,SKC,0.00,VWS V14.00,2013-09-18 06:01:00,
2013-09-18 01:06:00,73.9,71.1,29.98,South,184,0.0,0.0,91,0.00,,SKC,0.00,VWS V14.00,2013-09-18 06:06:00,
2013-09-18 01:11:00,73.9,71.1,29.98,South,184,0.0,0.0,91,0.00,,SKC,0.00,VWS V14.00,2013-09-18 06:11:00,
2013-09-18 01:16:00,73.9,71.4,29.98,South,184,0.0,0.0,92,0.00,,SKC,0.00,VWS V14.00,2013-09-18 06:16:00,
2013-09-18 01:21:00,73.9,71.4,29.99,South,184,0.0,0.0,92,0.00,,SKC,0.00,VWS V14.00,2013-09-18 06:21:00,
2013-09-18 01:26:00,73.9,71.4,29.99,South,184,0.0,0.0,92,0.00,,SKC,0.00,VWS V14.00,2013-09-18 06:26:00,
2013-09-18 01:31:00,73.8,71.3,29.98,South,184,0.0,0.0,92,0.00,,SKC,0.00,VWS V14.00,2013-09-18 06:31:00,
2013-09-18 01:36:00,73.7,71.2,29.98,South,184,0.0,0.0,92,0.00,,SKC,0.00,VWS V14.00,2013-09-18 06:36:00,
2013-09-18 01:41:00,73.6,71.1,29.98,South,184,0.0,0.0,92,0.00,,SKC,0.00,VWS V14.00,2013-09-18 06:41:00,
2013-09-18 01:46:00,73.5,71.0,29.98,South,184,0.0,0.0,92,0.00,,SKC,0.00,VWS V14.00,2013-09-18 06:46:00,
2013-09-18 01:51:00,73.4,70.9,29.98,South,184,0.0,0.0,92,0.00,,SKC,0.00,VWS V14.00,2013-09-18 06:51:00,
2013-09-18 01:56:00,73.5,71.4,29.98,South,184,0.0,0.0,93,0.00,,SKC,0.00,VWS V14.00,2013-09-18 06:56:00,
2013-09-18 02:01:00,73.5,71.4,29.98,South,184,0.0,0.0,93,0.00,,SKC,0.00,VWS V14.00,2013-09-18 07:01:00,
2013-09-18 02:06:00,73.4,71.3,29.98,South,184,0.0,0.0,93,0.00,,SKC,0.00,VWS V14.00,2013-09-18 07:06:00,
2013-09-18 02:11:00,73.3,71.2,29.98,South,184,0.0,0.0,93,0.00,,SKC,0.00,VWS V14.00,2013-09-18 07:11:00,
2013-09-18 02:16:00,73.3,71.2,29.97,South,184,0.0,0.0,93,0.00,,SKC,0.00,VWS V14.00,2013-09-18 07:16:00,
2013-09-18 02:21:00,73.3,71.2,29.98,South,184,0.0,0.0,93,0.00,,SKC,0.00,VWS V14.00,2013-09-18 07:21:00,
2013-09-18 02:26:00,73.3,71.2,29.98,South,184,0.0,0.0,93,0.00,,SKC,0.00,VWS V14.00,2013-09-18 07:26:00,
2013-09-18 02:31:00,73.3,71.2,29.98,South,184,1.0,2.0,93,0.00,,SKC,0.00,VWS V14.00,2013-09-18 07:31:00,
2013-09-18 02:36:00,73.3,71.5,29.97,South,184,0.0,2.0,94,0.00,,SKC,0.00,VWS V14.00,2013-09-18 07:36:00,
2013-09-18 02:41:00,73.3,71.2,29.97,South,184,0.0,2.0,93,0.00,,SKC,0.00,VWS V14.00,2013-09-18 07:41:00,
2013-09-18 02:46:00,73.3,71.2,29.97,South,184,0.0,2.0,93,0.00,,SKC,0.00,VWS V14.00,2013-09-18 07:46:00,
2013-09-18 02:51:00,73.1,71.0,29.97,South,184,0.0,2.0,93,0.00,,SKC,0.00,VWS V14.00,2013-09-18 07:51:00,
2013-09-18 02:56:00,73.1,71.0,29.97,South,184,0.0,2.0,93,0.00,,SKC,0.00,VWS V14.00,2013-09-18 07:56:00,
2013-09-18 03:01:00,73.1,71.3,29.97,South,184,0.0,2.0,94,0.00,,SKC,0.00,VWS V14.00,2013-09-18 08:01:00,
2013-09-18 03:06:00,73.3,71.5,29.96,South,184,0.0,0.0,94,0.00,,SKC,0.00,VWS V14.00,2013-09-18 08:06:00,
2013-09-18 03:11:00,73.3,71.5,29.97,South,184,0.0,0.0,94,0.00,,SKC,0.00,VWS V14.00,2013-09-18 08:11:00,
2013-09-18 03:16:00,73.3,71.2,29.97,South,184,1.0,2.0,93,0.00,,SKC,0.00,VWS V14.00,2013-09-18 08:16:00,
2013-09-18 03:21:00,73.2,71.4,29.97,South,184,0.0,2.0,94,0.00,,SKC,0.00,VWS V14.00,2013-09-18 08:21:00,
2013-09-18 03:26:00,73.2,71.4,29.97,South,184,0.0,2.0,94,0.00,,SKC,0.00,VWS V14.00,2013-09-18 08:26:00,
2013-09-18 03:31:00,73.3,71.5,29.97,South,184,0.0,2.0,94,0.00,,SKC,0.00,VWS V14.00,2013-09-18 08:31:00,
2013-09-18 03:36:00,73.3,71.5,29.97,South,184,0.0,2.0,94,0.00,,SKC,0.00,VWS V14.00,2013-09-18 08:36:00,
2013-09-18 03:41:00,73.3,71.5,29.97,South,184,2.0,2.0,94,0.00,,SKC,0.00,VWS V14.00,2013-09-18 08:41:00,
2013-09-18 03:46:00,73.1,71.3,29.97,South,184,2.0,3.0,94,0.00,,SKC,0.00,VWS V14.00,2013-09-18 08:46:00,
2013-09-18 03:51:00,73.1,71.3,29.97,South,184,1.0,3.0,94,0.00,,SKC,0.00,VWS V14.00,2013-09-18 08:51:00,
2013-09-18 03:56:00,73.2,71.4,29.97,South,184,0.0,3.0,94,0.00,,SKC,0.00,VWS V14.00,2013-09-18 08:56:00,
2013-09-18 04:01:00,73.3,71.5,29.97,South,184,0.0,3.0,94,0.00,,SKC,0.00,VWS V14.00,2013-09-18 09:01:00,
2013-09-18 04:06:00,73.4,71.6,29.97,South,184,0.0,0.0,94,0.00,,SKC,0.00,VWS V14.00,2013-09-18 09:06:00,
2013-09-18 04:11:00,73.4,71.6,29.97,South,184,0.0,1.0,94,0.00,,SKC,0.00,VWS V14.00,2013-09-18 09:11:00,
2013-09-18 04:16:00,73.3,71.5,29.97,South,184,0.0,1.0,94,0.00,,SKC,0.00,VWS V14.00,2013-09-18 09:16:00,
2013-09-18 04:21:00,73.3,71.5,29.97,South,184,0.0,1.0,94,0.00,,SKC,0.00,VWS V14.00,2013-09-18 09:21:00,
2013-09-18 04:26:00,73.3,71.5,29.97,South,184,0.0,1.0,94,0.00,,SKC,0.00,VWS V14.00,2013-09-18 09:26:00,
2013-09-18 04:31:00,73.4,71.6,29.97,South,184,0.0,1.0,94,0.00,,SKC,0.00,VWS V14.00,2013-09-18 09:31:00,
2013-09-18 04:36:00,73.5,72.0,29.97,South,184,1.0,1.0,95,0.00,,SKC,0.00,VWS V14.00,2013-09-18 09:36:00,
2013-09-18 04:41:00,73.5,72.0,29.97,South,184,1.0,3.0,95,0.00,,SKC,0.00,VWS V14.00,2013-09-18 09:41:00,
2013-09-18 04:46:00,73.6,72.1,29.97,South,184,3.0,4.0,95,0.00,,SKC,0.00,VWS V14.00,2013-09-18 09:46:00,
2013-09-18 04:51:00,73.7,72.2,29.97,South,184,0.0,5.0,95,0.00,,SKC,0.00,VWS V14.00,2013-09-18 09:51:00,
2013-09-18 04:56:00,73.6,72.1,29.97,South,184,0.0,5.0,95,0.00,,SKC,0.00,VWS V14.00,2013-09-18 09:56:00,
2013-09-18 05:01:00,73.7,72.2,29.97,South,184,0.0,5.0,95,0.00,,SKC,0.00,VWS V14.00,2013-09-18 10:01:00,
2013-09-18 05:06:00,73.8,72.3,29.97,South,184,0.0,0.0,95,0.00,,SKC,0.00,VWS V14.00,2013-09-18 10:06:00,
2013-09-18 05:11:00,73.9,72.4,29.97,South,184,0.0,0.0,95,0.00,,SKC,0.00,VWS V14.00,2013-09-18 10:11:00,
2013-09-18 05:16:00,73.8,72.3,29.97,South,184,0.0,0.0,95,0.00,,SKC,0.00,VWS V14.00,2013-09-18 10:16:00,
2013-09-18 05:21:00,73.8,72.3,29.97,South,184,0.0,0.0,95,0.00,,SKC,0.00,VWS V14.00,2013-09-18 10:21:00,
2013-09-18 05:26:00,73.8,72.3,29.97,South,184,0.0,0.0,95,0.00,,SKC,0.00,VWS V14.00,2013-09-18 10:26:00,
2013-09-18 05:31:00,73.7,72.2,29.97,South,184,0.0,0.0,95,0.00,,SKC,0.00,VWS V14.00,2013-09-18 10:31:00,
2013-09-18 05:36:00,73.7,72.2,29.97,South,184,0.0,0.0,95,0.00,,SKC,0.00,VWS V14.00,2013-09-18 10:36:00,
2013-09-18 05:41:00,73.7,72.2,29.97,South,184,0.0,0.0,95,0.00,,SKC,0.00,VWS V14.00,2013-09-18 10:41:00,
2013-09-18 05:46:00,73.6,72.1,29.98,South,184,0.0,0.0,95,0.00,,SKC,0.00,VWS V14.00,2013-09-18 10:46:00,
2013-09-18 05:51:00,73.6,72.1,29.98,South,184,0.0,0.0,95,0.00,,SKC,0.00,VWS V14.00,2013-09-18 10:51:00,
2013-09-18 05:56:00,73.5,72.0,29.98,South,184,0.0,0.0,95,0.00,,SKC,0.00,VWS V14.00,2013-09-18 10:56:00,
2013-09-18 06:01:00,73.5,72.0,29.98,South,184,0.0,1.0,95,0.00,,SKC,0.00,VWS V14.00,2013-09-18 11:01:00,
2013-09-18 06:06:00,73.5,72.0,29.98,South,184,1.0,3.0,95,0.00,,SKC,0.00,VWS V14.00,2013-09-18 11:06:00,
2013-09-18 06:11:00,73.5,72.0,29.98,South,184,0.0,3.0,95,0.00,,SKC,0.00,VWS V14.00,2013-09-18 11:11:00,
2013-09-18 06:16:00,73.5,72.0,29.98,South,184,1.0,3.0,95,0.00,,SKC,0.00,VWS V14.00,2013-09-18 11:16:00,
2013-09-18 06:21:00,73.4,71.9,29.98,South,184,0.0,3.0,95,0.00,,SKC,0.00,VWS V14.00,2013-09-18 11:21:00,
2013-09-18 06:26:00,73.4,71.9,29.98,South,184,0.0,3.0,95,0.00,,SKC,0.00,VWS V14.00,2013-09-18 11:26:00,
2013-09-18 06:31:00,73.3,71.8,29.98,South,184,0.0,3.0,95,0.00,,SKC,0.00,VWS V14.00,2013-09-18 11:31:00,
2013-09-18 06:36:00,73.3,71.8,29.98,South,184,0.0,3.0,95,0.00,,SKC,0.00,VWS V14.00,2013-09-18 11:36:00,
2013-09-18 06:41:00,73.3,71.8,29.98,South,184,0.0,3.0,95,0.00,,SKC,0.00,VWS V14.00,2013-09-18 11:41:00,
2013-09-18 06:46:00,73.3,71.8,29.98,South,184,0.0,3.0,95,0.00,,SKC,0.00,VWS V14.00,2013-09-18 11:46:00,
2013-09-18 06:51:00,73.3,71.8,29.98,South,184,0.0,3.0,95,0.00,,SKC,0.00,VWS V14.00,2013-09-18 11:51:00,
2013-09-18 06:56:00,73.3,71.8,29.98,South,184,0.0,3.0,95,0.00,,SKC,0.00,VWS V14.00,2013-09-18 11:56:00,
2013-09-18 07:01:00,73.3,72.1,29.98,South,184,0.0,3.0,96,0.00,,SKC,0.00,VWS V14.00,2013-09-18 12:01:00,
2013-09-18 07:06:00,73.4,72.2,29.98,South,184,0.0,2.0,96,0.00,,SKC,0.00,VWS V14.00,2013-09-18 12:06:00,
2013-09-18 07:11:00,73.4,72.2,29.99,South,184,0.0,2.0,96,0.00,,SKC,0.00,VWS V14.00,2013-09-18 12:11:00,
2013-09-18 07:16:00,73.5,72.3,29.99,South,184,0.0,2.0,96,0.00,,SKC,0.00,VWS V14.00,2013-09-18 12:16:00,
2013-09-18 07:21:00,73.5,72.3,29.99,South,184,0.0,2.0,96,0.00,,SKC,0.00,VWS V14.00,2013-09-18 12:21:00,
2013-09-18 07:26:00,73.7,72.5,29.99,South,184,1.0,2.0,96,0.00,,SKC,0.00,VWS V14.00,2013-09-18 12:26:00,
2013-09-18 07:31:00,73.8,72.6,29.99,South,184,0.0,2.0,96,0.00,,SKC,0.00,VWS V14.00,2013-09-18 12:31:00,
2013-09-18 07:36:00,73.8,72.6,29.99,South,184,0.0,2.0,96,0.00,,SKC,0.00,VWS V14.00,2013-09-18 12:36:00,
2013-09-18 07:41:00,73.7,72.5,30.00,South,184,0.0,2.0,96,0.00,,SKC,0.00,VWS V14.00,2013-09-18 12:41:00,
2013-09-18 07:46:00,73.8,72.6,30.00,South,184,0.0,2.0,96,0.00,,SKC,0.00,VWS V14.00,2013-09-18 12:46:00,
2013-09-18 07:51:00,74.0,72.8,30.00,South,184,0.0,2.0,96,0.00,,SKC,0.00,VWS V14.00,2013-09-18 12:51:00,
2013-09-18 07:56:00,74.4,73.5,30.00,South,184,2.0,2.0,97,0.00,,SKC,0.00,VWS V14.00,2013-09-18 12:56:00,
2013-09-18 08:01:00,74.8,73.6,30.00,South,184,1.0,3.0,96,0.00,,SKC,0.00,VWS V14.00,2013-09-18 13:01:00,
2013-09-18 08:06:00,75.3,74.4,30.00,South,184,1.0,2.0,97,0.00,,SKC,0.00,VWS V14.00,2013-09-18 13:06:00,
2013-09-18 08:11:00,75.8,74.6,30.00,South,184,2.0,3.0,96,0.00,,SKC,0.00,VWS V14.00,2013-09-18 13:11:00,
2013-09-18 08:16:00,76.1,74.6,30.00,South,184,1.0,3.0,95,0.00,,SKC,0.00,VWS V14.00,2013-09-18 13:16:00,
2013-09-18 08:21:00,76.4,74.9,30.00,South,184,0.0,3.0,95,0.00,,SKC,0.00,VWS V14.00,2013-09-18 13:21:00,
2013-09-18 08:26:00,76.7,75.2,30.00,South,173,2.0,5.0,95,0.00,,SKC,0.00,VWS V14.00,2013-09-18 13:26:00,
2013-09-18 08:31:00,76.9,75.1,30.01,South,171,1.0,5.0,94,0.00,,SKC,0.00,VWS V14.00,2013-09-18 13:31:00,
2013-09-18 08:36:00,77.3,75.4,30.01,South,171,1.0,5.0,94,0.00,,SKC,0.00,VWS V14.00,2013-09-18 13:36:00,
2013-09-18 08:41:00,77.5,75.3,30.01,South,171,2.0,5.0,93,0.00,,SKC,0.00,VWS V14.00,2013-09-18 13:41:00,
2013-09-18 08:46:00,77.7,75.5,30.01,South,171,0.0,5.0,93,0.00,,SKC,0.00,VWS V14.00,2013-09-18 13:46:00,
2013-09-18 08:51:00,77.9,75.4,30.01,South,171,0.0,5.0,92,0.00,,SKC,0.00,VWS V14.00,2013-09-18 13:51:00,
2013-09-18 08:56:00,78.2,75.7,30.01,South,171,1.0,5.0,92,0.00,,SKC,0.00,VWS V14.00,2013-09-18 13:56:00,
2013-09-18 09:01:00,78.4,75.6,30.01,South,171,2.0,5.0,91,0.00,,SKC,0.00,VWS V14.00,2013-09-18 14:01:00,
2013-09-18 09:06:00,78.6,75.8,30.01,South,171,0.0,4.0,91,0.00,,SKC,0.00,VWS V14.00,2013-09-18 14:06:00,
2013-09-18 09:11:00,78.9,75.7,30.01,South,171,2.0,5.0,90,0.00,,SKC,0.00,VWS V14.00,2013-09-18 14:11:00,
2013-09-18 09:16:00,79.2,75.7,30.01,ESE,117,7.0,7.0,89,0.00,,SKC,0.00,VWS V14.00,2013-09-18 14:16:00,
2013-09-18 09:21:00,79.3,75.8,30.01,ENE,61,3.0,7.0,89,0.00,,SKC,0.00,VWS V14.00,2013-09-18 14:21:00,
2013-09-18 09:26:00,79.5,76.0,30.01,ENE,61,3.0,7.0,89,0.00,,SKC,0.00,VWS V14.00,2013-09-18 14:26:00,
2013-09-18 09:31:00,79.8,75.9,30.01,NE,52,3.0,7.0,88,0.00,,SKC,0.00,VWS V14.00,2013-09-18 14:31:00,
2013-09-18 09:36:00,80.1,76.2,30.01,NE,47,5.0,7.0,88,0.00,,SKC,0.00,VWS V14.00,2013-09-18 14:36:00,
2013-09-18 09:41:00,80.4,76.2,30.01,ENE,66,3.0,7.0,87,0.00,,SKC,0.00,VWS V14.00,2013-09-18 14:41:00,
2013-09-18 09:46:00,81.0,76.8,30.01,ENE,67,2.0,7.0,87,0.00,,SKC,0.00,VWS V14.00,2013-09-18 14:46:00,
2013-09-18 09:51:00,82.0,77.4,30.01,East,98,4.0,8.0,86,0.00,,SKC,0.00,VWS V14.00,2013-09-18 14:51:00,
2013-09-18 09:56:00,82.7,77.4,30.01,East,86,4.0,8.0,84,0.00,,SKC,0.00,VWS V14.00,2013-09-18 14:56:00,
2013-09-18 10:01:00,83.2,78.2,30.02,ENE,74,6.0,8.0,85,0.00,,SKC,0.00,VWS V14.00,2013-09-18 15:01:00,
2013-09-18 10:06:00,83.7,78.0,30.02,ENE,67,1.0,7.0,83,0.00,,SKC,0.00,VWS V14.00,2013-09-18 15:06:00,
2013-09-18 10:11:00,84.0,78.3,30.02,East,98,6.0,10.0,83,0.00,,SKC,0.00,VWS V14.00,2013-09-18 15:11:00,
2013-09-18 10:16:00,84.6,78.5,30.02,ESE,109,6.0,10.0,82,0.00,,SKC,0.00,VWS V14.00,2013-09-18 15:16:00,
2013-09-18 10:21:00,85.3,78.4,30.02,ESE,111,7.0,10.0,80,0.00,,SKC,0.00,VWS V14.00,2013-09-18 15:21:00,
2013-09-18 10:26:00,85.8,78.5,30.02,East,96,4.0,10.0,79,0.00,,SKC,0.00,VWS V14.00,2013-09-18 15:26:00,
2013-09-18 10:31:00,86.1,77.7,30.02,SE,125,2.0,11.0,76,0.00,,SKC,0.00,VWS V14.00,2013-09-18 15:31:00,
2013-09-18 10:36:00,86.4,76.3,30.02,ESE,117,4.0,15.0,72,0.00,,SKC,0.00,VWS V14.00,2013-09-18 15:36:00,
2013-09-18 10:41:00,86.5,76.8,30.02,SE,141,5.0,15.0,73,0.00,,SKC,0.00,VWS V14.00,2013-09-18 15:41:00,
2013-09-18 10:46:00,86.6,76.9,30.02,ENE,58,4.0,15.0,73,0.00,,SKC,0.00,VWS V14.00,2013-09-18 15:46:00,
2013-09-18 10:51:00,86.9,77.2,30.02,ESE,102,7.0,15.0,73,0.00,,SKC,0.00,VWS V14.00,2013-09-18 15:51:00,
2013-09-18 10:56:00,87.3,76.8,30.02,SSE,149,9.0,15.0,71,0.00,,SKC,0.00,VWS V14.00,2013-09-18 15:56:00,
2013-09-18 11:01:00,87.6,76.2,30.02,East,80,6.0,15.0,69,0.00,,SKC,0.00,VWS V14.00,2013-09-18 16:01:00,
2013-09-18 11:06:00,87.8,76.4,30.02,ESE,107,8.0,11.0,69,0.00,,SKC,0.00,VWS V14.00,2013-09-18 16:06:00,
2013-09-18 11:11:00,88.1,75.8,30.02,South,169,12.0,16.0,67,0.00,,SKC,0.00,VWS V14.00,2013-09-18 16:11:00,
2013-09-18 11:16:00,88.5,76.6,30.02,East,101,5.0,16.0,68,0.00,,SKC,0.00,VWS V14.00,2013-09-18 16:16:00,
2013-09-18 11:21:00,88.6,76.2,30.02,SE,140,5.0,16.0,67,0.00,,SKC,0.00,VWS V14.00,2013-09-18 16:21:00,
2013-09-18 11:26:00,88.6,75.8,30.02,SE,130,7.0,16.0,66,0.00,,SKC,0.00,VWS V14.00,2013-09-18 16:26:00,
2013-09-18 11:31:00,88.7,75.4,30.02,ESE,115,8.0,18.0,65,0.00,,SKC,0.00,VWS V14.00,2013-09-18 16:31:00,
2013-09-18 11:36:00,88.4,75.6,30.02,SE,146,9.0,18.0,66,0.00,,SKC,0.00,VWS V14.00,2013-09-18 16:36:00,
2013-09-18 11:41:00,88.4,74.7,30.02,SSE,147,9.0,18.0,64,0.00,,SKC,0.00,VWS V14.00,2013-09-18 16:41:00,
2013-09-18 11:46:00,88.7,75.4,30.02,SE,140,5.0,18.0,65,0.00,,SKC,0.00,VWS V14.00,2013-09-18 16:46:00,
2013-09-18 11:51:00,88.9,75.2,30.01,SSE,155,9.0,18.0,64,0.00,,SKC,0.00,VWS V14.00,2013-09-18 16:51:00,
2013-09-18 11:56:00,88.9,75.6,30.01,SSE,153,14.0,18.0,65,0.00,,SKC,0.00,VWS V14.00,2013-09-18 16:56:00,
2013-09-18 12:01:00,88.9,74.7,30.01,SSE,168,6.0,18.0,63,0.00,,SKC,0.00,VWS V14.00,2013-09-18 17:01:00,
2013-09-18 12:06:00,88.9,74.2,30.01,ESE,106,11.0,17.0,62,0.00,,SKC,0.00,VWS V14.00,2013-09-18 17:06:00,
2013-09-18 12:11:00,89.6,74.9,30.00,SE,140,11.0,17.0,62,0.00,,SKC,0.00,VWS V14.00,2013-09-18 17:11:00,
2013-09-18 12:16:00,89.4,74.2,30.00,South,171,8.0,17.0,61,0.00,,SKC,0.00,VWS V14.00,2013-09-18 17:16:00,
2013-09-18 12:21:00,89.7,74.5,30.00,SSE,154,17.0,17.0,61,0.00,,SKC,0.00,VWS V14.00,2013-09-18 17:21:00,
2013-09-18 12:26:00,90.0,75.2,30.00,ESE,121,13.0,18.0,62,0.00,,SKC,0.00,VWS V14.00,2013-09-18 17:26:00,
2013-09-18 12:31:00,90.4,75.1,30.00,ESE,111,6.0,18.0,61,0.00,,SKC,0.00,VWS V14.00,2013-09-18 17:31:00,
2013-09-18 12:36:00,90.2,74.9,30.00,ESE,123,8.0,18.0,61,0.00,,SKC,0.00,VWS V14.00,2013-09-18 17:36:00,
2013-09-18 12:41:00,89.9,73.2,30.00,ESE,116,5.0,18.0,58,0.00,,SKC,0.00,VWS V14.00,2013-09-18 17:41:00,
2013-09-18 12:46:00,90.0,74.8,29.99,East,96,8.0,18.0,61,0.00,,SKC,0.00,VWS V14.00,2013-09-18 17:46:00,
2013-09-18 12:51:00,90.1,74.3,29.99,ESE,113,8.0,18.0,60,0.00,,SKC,0.00,VWS V14.00,2013-09-18 17:51:00,
2013-09-18 12:56:00,90.3,73.0,29.99,ESE,111,1.0,18.0,57,0.00,,SKC,0.00,VWS V14.00,2013-09-18 17:56:00,
2013-09-18 13:01:00,90.9,73.0,29.99,SE,130,9.0,18.0,56,0.00,,SKC,0.00,VWS V14.00,2013-09-18 18:01:00,
2013-09-18 13:06:00,91.5,74.1,29.98,ESE,118,11.0,14.0,57,0.00,,SKC,0.00,VWS V14.00,2013-09-18 18:06:00,
2013-09-18 13:11:00,91.2,73.8,29.98,East,101,2.0,14.0,57,0.00,,SKC,0.00,VWS V14.00,2013-09-18 18:11:00,
2013-09-18 13:16:00,90.9,74.1,29.98,SE,132,11.0,14.0,58,0.00,,SKC,0.00,VWS V14.00,2013-09-18 18:16:00,
2013-09-18 13:21:00,90.8,74.5,29.98,ESE,117,5.0,15.0,59,0.00,,SKC,0.00,VWS V14.00,2013-09-18 18:21:00,
2013-09-18 13:26:00,91.0,74.2,29.97,ESE,118,8.0,15.0,58,0.00,,SKC,0.00,VWS V14.00,2013-09-18 18:26:00,
2013-09-18 13:32:00,91.5,73.6,29.97,ESE,105,4.0,15.0,56,0.00,,SKC,0.00,VWS V14.00,2013-09-18 18:32:00,
2013-09-18 13:37:00,91.7,73.2,29.96,SSE,147,17.0,17.0,55,0.00,,SKC,0.00,VWS V14.00,2013-09-18 18:37:00,
2013-09-18 13:42:00,91.7,73.8,29.96,SSE,152,8.0,17.0,56,0.00,,SKC,0.00,VWS V14.00,2013-09-18 18:42:00,
2013-09-18 13:47:00,91.7,72.7,29.96,ESE,117,7.0,17.0,54,0.00,,SKC,0.00,VWS V14.00,2013-09-18 18:47:00,
2013-09-18 13:52:00,91.6,72.6,29.96,ENE,74,7.0,17.0,54,0.00,,SKC,0.00,VWS V14.00,2013-09-18 18:52:00,
2013-09-18 13:57:00,92.0,73.5,29.95,SE,124,6.0,17.0,55,0.00,,SKC,0.00,VWS V14.00,2013-09-18 18:57:00,
2013-09-18 14:02:00,92.2,73.2,29.95,East,80,6.0,9.0,54,0.00,,SKC,0.00,VWS V14.00,2013-09-18 19:02:00,
2013-09-18 14:07:00,92.5,72.9,29.95,ESE,111,6.0,13.0,53,0.00,,SKC,0.00,VWS V14.00,2013-09-18 19:07:00,
2013-09-18 14:12:00,92.8,72.6,29.95,ESE,115,13.0,14.0,52,0.00,,SKC,0.00,VWS V14.00,2013-09-18 19:12:00,
2013-09-18 14:17:00,92.8,72.0,29.95,East,92,8.0,14.0,51,0.00,,SKC,0.00,VWS V14.00,2013-09-18 19:17:00,
2013-09-18 14:22:00,92.5,71.8,29.95,ENE,72,4.0,14.0,51,0.00,,SKC,0.00,VWS V14.00,2013-09-18 19:22:00,
2013-09-18 14:27:00,92.4,72.8,29.95,SE,124,9.0,14.0,53,0.00,,SKC,0.00,VWS V14.00,2013-09-18 19:27:00,
2013-09-18 14:32:00,92.4,72.8,29.95,SSE,150,6.0,21.0,53,0.00,,SKC,0.00,VWS V14.00,2013-09-18 19:32:00,
2013-09-18 14:37:00,92.5,73.4,29.94,ESE,111,9.0,21.0,54,0.00,,SKC,0.00,VWS V14.00,2013-09-18 19:37:00,
2013-09-18 14:42:00,92.9,72.1,29.94,ESE,117,12.0,21.0,51,0.00,,SKC,0.00,VWS V14.00,2013-09-18 19:42:00,
2013-09-18 14:47:00,92.9,72.1,29.94,SE,136,6.0,21.0,51,0.00,,SKC,0.00,VWS V14.00,2013-09-18 19:47:00,
2013-09-18 14:52:00,92.6,72.4,29.94,SSE,153,5.0,21.0,52,0.00,,SKC,0.00,VWS V14.00,2013-09-18 19:52:00,
2013-09-18 14:57:00,92.5,71.8,29.93,ESE,119,12.0,21.0,51,0.00,,SKC,0.00,VWS V14.00,2013-09-18 19:57:00,
2013-09-18 15:02:00,92.6,72.4,29.93,ESE,120,8.0,13.0,52,0.00,,SKC,0.00,VWS V14.00,2013-09-18 20:02:00,
2013-09-18 15:07:00,93.0,72.8,29.93,ESE,105,7.0,14.0,52,0.00,,SKC,0.00,VWS V14.00,2013-09-18 20:07:00,
2013-09-18 15:12:00,93.3,73.6,29.93,SE,130,12.0,15.0,53,0.00,,SKC,0.00,VWS V14.00,2013-09-18 20:12:00,
2013-09-18 15:17:00,93.2,73.5,29.93,East,97,6.0,15.0,53,0.00,,SKC,0.00,VWS V14.00,2013-09-18 20:17:00,
2013-09-18 15:22:00,93.5,74.4,29.93,ESE,115,5.0,15.0,54,0.00,,SKC,0.00,VWS V14.00,2013-09-18 20:22:00,
2013-09-18 15:27:00,93.7,74.0,29.93,SE,129,8.0,15.0,53,0.00,,SKC,0.00,VWS V14.00,2013-09-18 20:27:00,
2013-09-18 15:32:00,93.3,73.6,29.92,East,86,6.0,15.0,53,0.00,,SKC,0.00,VWS V14.00,2013-09-18 20:32:00,
2013-09-18 15:37:00,92.6,73.5,29.93,ESE,108,5.0,15.0,54,0.00,,SKC,0.00,VWS V14.00,2013-09-18 20:37:00,
2013-09-18 15:42:00,92.0,73.5,29.92,ESE,111,6.0,15.0,55,0.00,,SKC,0.00,VWS V14.00,2013-09-18 20:42:00,
2013-09-18 15:47:00,91.7,73.8,29.92,ESE,123,7.0,15.0,56,0.00,,SKC,0.00,VWS V14.00,2013-09-18 20:47:00,
2013-09-18 15:52:00,91.2,73.8,29.92,ESE,119,4.0,15.0,57,0.00,,SKC,0.00,VWS V14.00,2013-09-18 20:52:00,
2013-09-18 15:57:00,91.1,73.8,29.92,SE,138,4.0,15.0,57,0.00,,SKC,0.00,VWS V14.00,2013-09-18 20:57:00,
2013-09-18 16:02:00,91.8,73.9,29.92,ESE,121,2.0,4.0,56,0.00,,SKC,0.00,VWS V14.00,2013-09-18 21:02:00,
2013-09-18 16:07:00,92.5,74.0,29.92,ENE,70,2.0,12.0,55,0.00,,SKC,0.00,VWS V14.00,2013-09-18 21:07:00,
2013-09-18 16:12:00,92.6,74.1,29.91,ESE,104,1.0,12.0,55,0.00,,SKC,0.00,VWS V14.00,2013-09-18 21:12:00,
2013-09-18 16:17:00,92.4,73.9,29.91,ESE,105,5.0,14.0,55,0.00,,SKC,0.00,VWS V14.00,2013-09-18 21:17:00,
2013-09-18 16:22:00,92.2,73.7,29.91,SE,130,6.0,14.0,55,0.00,,SKC,0.00,VWS V14.00,2013-09-18 21:22:00,
2013-09-18 16:27:00,92.0,73.5,29.91,SE,125,4.0,14.0,55,0.00,,SKC,0.00,VWS V14.00,2013-09-18 21:27:00,
2013-09-18 16:32:00,92.0,73.5,29.91,ESE,118,6.0,14.0,55,0.00,,SKC,0.00,VWS V14.00,2013-09-18 21:32:00,
2013-09-18 16:37:00,91.8,73.9,29.92,ESE,111,6.0,14.0,56,0.00,,SKC,0.00,VWS V14.00,2013-09-18 21:37:00,
2013-09-18 16:42:00,91.6,73.7,29.92,ESE,106,5.0,14.0,56,0.00,,SKC,0.00,VWS V14.00,2013-09-18 21:42:00,
2013-09-18 16:47:00,91.3,73.4,29.91,ESE,121,2.0,14.0,56,0.00,,SKC,0.00,VWS V14.00,2013-09-18 21:47:00,
2013-09-18 16:52:00,91.4,74.0,29.92,ESE,115,6.0,15.0,57,0.00,,SKC,0.00,VWS V14.00,2013-09-18 21:52:00,
2013-09-18 16:57:00,91.9,73.4,29.92,East,96,7.0,15.0,55,0.00,,SKC,0.00,VWS V14.00,2013-09-18 21:57:00,
2013-09-18 17:02:00,92.2,74.2,29.92,SE,128,6.0,8.0,56,0.00,,SKC,0.00,VWS V14.00,2013-09-18 22:02:00,
2013-09-18 17:07:00,92.3,74.3,29.92,SE,138,9.0,13.0,56,0.00,,SKC,0.00,VWS V14.00,2013-09-18 22:07:00,
2013-09-18 17:12:00,92.2,74.2,29.92,ESE,113,6.0,15.0,56,0.00,,SKC,0.00,VWS V14.00,2013-09-18 22:12:00,
2013-09-18 17:17:00,92.1,74.7,29.91,ESE,115,4.0,15.0,57,0.00,,SKC,0.00,VWS V14.00,2013-09-18 22:17:00,
2013-09-18 17:22:00,92.1,75.2,29.91,SE,125,8.0,15.0,58,0.00,,SKC,0.00,VWS V14.00,2013-09-18 22:22:00,
2013-09-18 17:27:00,91.5,74.7,29.91,SE,138,7.0,15.0,58,0.00,,SKC,0.00,VWS V14.00,2013-09-18 22:27:00,
2013-09-18 17:32:00,91.1,74.3,29.91,SE,126,6.0,15.0,58,0.00,,SKC,0.00,VWS V14.00,2013-09-18 22:32:00,
2013-09-18 17:37:00,90.9,74.6,29.91,ESE,111,12.0,15.0,59,0.00,,SKC,0.00,VWS V14.00,2013-09-18 22:37:00,
2013-09-18 17:42:00,90.4,74.1,29.92,SE,130,13.0,21.0,59,0.00,,SKC,0.00,VWS V14.00,2013-09-18 22:42:00,
2013-09-18 17:47:00,89.0,72.8,29.92,East,95,13.0,21.0,59,0.00,,SKC,0.00,VWS V14.00,2013-09-18 22:47:00,
2013-09-18 17:52:00,87.2,72.1,29.92,ESE,121,7.0,22.0,61,0.00,,SKC,0.00,VWS V14.00,2013-09-18 22:52:00,
2013-09-18 17:57:00,85.3,72.7,29.92,ESE,121,7.0,22.0,66,0.00,,SKC,0.00,VWS V14.00,2013-09-18 22:57:00,
2013-09-18 18:02:00,83.9,72.7,29.93,East,86,6.0,7.0,69,0.00,,SKC,0.00,VWS V14.00,2013-09-18 23:02:00,
2013-09-18 18:07:00,83.1,72.3,29.93,East,89,4.0,7.0,70,0.00,,SKC,0.00,VWS V14.00,2013-09-18 23:07:00,
2013-09-18 18:12:00,82.5,72.2,29.93,East,96,5.0,7.0,71,0.00,,SKC,0.00,VWS V14.00,2013-09-18 23:12:00,
2013-09-18 18:17:00,82.1,72.6,29.93,East,96,2.0,7.0,73,0.00,,SKC,0.00,VWS V14.00,2013-09-18 23:17:00,
2013-09-18 18:22:00,81.9,73.2,29.93,East,91,2.0,7.0,75,0.00,,SKC,0.00,VWS V14.00,2013-09-18 23:22:00,
2013-09-18 18:27:00,81.6,73.3,29.93,East,91,4.0,7.0,76,0.00,,SKC,0.00,VWS V14.00,2013-09-18 23:27:00,
2013-09-18 18:32:00,81.3,73.4,29.93,East,91,1.0,7.0,77,0.00,,SKC,0.00,VWS V14.00,2013-09-18 23:32:00,
2013-09-18 18:37:00,81.1,73.6,29.93,East,91,5.0,7.0,78,0.00,,SKC,0.00,VWS V14.00,2013-09-18 23:37:00,
2013-09-18 18:42:00,80.9,73.8,29.93,East,91,1.0,7.0,79,0.00,,SKC,0.00,VWS V14.00,2013-09-18 23:42:00,
2013-09-18 18:47:00,80.7,74.0,29.93,East,91,2.0,7.0,80,0.00,,SKC,0.00,VWS V14.00,2013-09-18 23:47:00,
2013-09-18 18:52:00,80.7,74.0,29.93,East,91,2.0,7.0,80,0.00,,SKC,0.00,VWS V14.00,2013-09-18 23:52:00,
2013-09-18 18:57:00,80.6,74.2,29.93,East,91,1.0,7.0,81,0.00,,SKC,0.00,VWS V14.00,2013-09-18 23:57:00,
2013-09-18 19:03:00,80.5,74.1,29.93,East,90,0.0,1.0,81,0.00,,SKC,0.00,VWS V14.00,2013-09-19 00:03:00,
2013-09-18 19:08:00,80.5,74.1,29.93,East,87,3.0,3.0,81,0.00,,SKC,0.00,VWS V14.00,2013-09-19 00:08:00,
2013-09-18 19:13:00,80.4,74.4,29.93,East,88,2.0,3.0,82,0.00,,SKC,0.00,VWS V14.00,2013-09-19 00:13:00,
2013-09-18 19:18:00,80.4,74.4,29.93,East,88,0.0,3.0,82,0.00,,SKC,0.00,VWS V14.00,2013-09-19 00:18:00,
2013-09-18 19:23:00,80.4,74.4,29.94,East,88,0.0,3.0,82,0.00,,SKC,0.00,VWS V14.00,2013-09-19 00:23:00,
2013-09-18 19:28:00,80.2,74.2,29.93,East,88,0.0,3.0,82,0.00,,SKC,0.00,VWS V14.00,2013-09-19 00:28:00,
2013-09-18 19:33:00,80.0,74.4,29.93,East,88,1.0,3.0,83,0.00,,SKC,0.00,VWS V14.00,2013-09-19 00:33:00,
2013-09-18 19:38:00,79.7,74.4,29.94,East,88,0.0,3.0,84,0.00,,SKC,0.00,VWS V14.00,2013-09-19 00:38:00,
2013-09-18 19:43:00,79.5,74.6,29.93,East,88,0.0,3.0,85,0.00,,SKC,0.00,VWS V14.00,2013-09-19 00:43:00,
2013-09-18 19:48:00,79.3,74.8,29.94,East,88,0.0,3.0,86,0.00,,SKC,0.00,VWS V14.00,2013-09-19 00:48:00,
2013-09-18 19:53:00,79.2,74.7,29.94,East,88,0.0,3.0,86,0.00,,SKC,0.00,VWS V14.00,2013-09-19 00:53:00,
2013-09-18 19:58:00,79.1,74.9,29.94,East,88,0.0,3.0,87,0.00,,SKC,0.00,VWS V14.00,2013-09-19 00:58:00,
2013-09-18 20:03:00,79.0,74.8,29.95,East,88,0.0,2.0,87,0.00,,SKC,0.00,VWS V14.00,2013-09-19 01:03:00,
2013-09-18 20:08:00,78.9,74.4,29.95,East,88,3.0,3.0,86,0.00,,SKC,0.00,VWS V14.00,2013-09-19 01:08:00,
2013-09-18 20:13:00,79.0,74.5,29.95,East,88,0.0,3.0,86,0.00,,SKC,0.00,VWS V14.00,2013-09-19 01:13:00,
2013-09-18 20:18:00,79.1,74.6,29.95,East,88,1.0,3.0,86,0.00,,SKC,0.00,VWS V14.00,2013-09-19 01:18:00,
2013-09-18 20:23:00,79.1,74.6,29.95,East,88,0.0,3.0,86,0.00,,SKC,0.00,VWS V14.00,2013-09-19 01:23:00,
2013-09-18 20:28:00,79.2,74.7,29.95,East,88,0.0,3.0,86,0.00,,SKC,0.00,VWS V14.00,2013-09-19 01:28:00,
2013-09-18 20:33:00,79.3,74.8,29.95,East,88,0.0,3.0,86,0.00,,SKC,0.00,VWS V14.00,2013-09-19 01:33:00,
2013-09-18 20:38:00,79.4,74.8,29.96,East,88,2.0,3.0,86,0.00,,SKC,0.00,VWS V14.00,2013-09-19 01:38:00,
2013-09-18 20:43:00,79.4,74.8,29.96,East,88,0.0,3.0,86,0.00,,SKC,0.00,VWS V14.00,2013-09-19 01:43:00,
2013-09-18 20:48:00,79.4,74.8,29.96,East,88,1.0,3.0,86,0.00,,SKC,0.00,VWS V14.00,2013-09-19 01:48:00,
2013-09-18 20:53:00,79.4,74.8,29.96,East,88,0.0,3.0,86,0.00,,SKC,0.00,VWS V14.00,2013-09-19 01:53:00,
2013-09-18 20:58:00,79.4,74.8,29.96,East,88,0.0,3.0,86,0.00,,SKC,0.00,VWS V14.00,2013-09-19 01:58:00,
2013-09-18 21:03:00,79.3,74.8,29.96,East,88,0.0,0.0,86,0.00,,SKC,0.00,VWS V14.00,2013-09-19 02:03:00,
2013-09-18 21:08:00,79.2,74.7,29.96,East,88,1.0,2.0,86,0.00,,SKC,0.00,VWS V14.00,2013-09-19 02:08:00,
2013-09-18 21:13:00,79.0,74.8,29.97,East,88,1.0,2.0,87,0.00,,SKC,0.00,VWS V14.00,2013-09-19 02:13:00,
2013-09-18 21:18:00,78.9,74.7,29.97,East,88,0.0,3.0,87,0.00,,SKC,0.00,VWS V14.00,2013-09-19 02:18:00,
2013-09-18 21:23:00,78.9,75.1,29.97,East,88,0.0,4.0,88,0.00,,SKC,0.00,VWS V14.00,2013-09-19 02:23:00,
2013-09-18 21:28:00,79.0,75.2,29.97,East,88,1.0,4.0,88,0.00,,SKC,0.00,VWS V14.00,2013-09-19 02:28:00,
2013-09-18 21:33:00,79.0,74.8,29.97,East,88,2.0,4.0,87,0.00,,SKC,0.00,VWS V14.00,2013-09-19 02:33:00,
2013-09-18 21:38:00,79.1,74.9,29.97,SE,127,0.0,7.0,87,0.00,,SKC,0.00,VWS V14.00,2013-09-19 02:38:00,
2013-09-18 21:43:00,79.2,75.0,29.97,SE,130,4.0,8.0,87,0.00,,SKC,0.00,VWS V14.00,2013-09-19 02:43:00,
2013-09-18 21:48:00,79.3,74.8,29.98,SE,130,0.0,8.0,86,0.00,,SKC,0.00,VWS V14.00,2013-09-19 02:48:00,
2013-09-18 21:53:00,79.4,74.8,29.98,SE,130,4.0,8.0,86,0.00,,SKC,0.00,VWS V14.00,2013-09-19 02:53:00,
2013-09-18 21:58:00,79.5,74.9,29.98,ESE,123,5.0,8.0,86,0.00,,SKC,0.00,VWS V14.00,2013-09-19 02:58:00,
2013-09-18 22:03:00,79.6,75.1,29.98,ESE,113,2.0,7.0,86,0.00,,SKC,0.00,VWS V14.00,2013-09-19 03:03:00,
2013-09-18 22:08:00,79.6,74.7,29.98,ESE,113,1.0,7.0,85,0.00,,SKC,0.00,VWS V14.00,2013-09-19 03:08:00,
2013-09-18 22:13:00,79.5,74.6,29.98,ESE,114,6.0,7.0,85,0.00,,SKC,0.00,VWS V14.00,2013-09-19 03:13:00,
2013-09-18 22:18:00,79.4,74.5,29.98,ESE,123,5.0,8.0,85,0.00,,SKC,0.00,VWS V14.00,2013-09-19 03:18:00,
2013-09-18 22:23:00,79.4,74.8,29.98,ESE,123,1.0,8.0,86,0.00,,SKC,0.00,VWS V14.00,2013-09-19 03:23:00,
2013-09-18 22:28:00,79.3,74.8,29.98,ESE,123,5.0,8.0,86,0.00,,SKC,0.00,VWS V14.00,2013-09-19 03:28:00,
2013-09-18 22:33:00,79.2,74.7,29.98,ESE,123,4.0,8.0,86,0.00,,SKC,0.00,VWS V14.00,2013-09-19 03:33:00,
2013-09-18 22:38:00,79.1,74.6,29.98,ESE,123,0.0,8.0,86,0.00,,SKC,0.00,VWS V14.00,2013-09-19 03:38:00,
2013-09-18 22:43:00,79.0,74.5,29.98,ESE,123,0.0,8.0,86,0.00,,SKC,0.00,VWS V14.00,2013-09-19 03:43:00,
2013-09-18 22:48:00,78.8,74.6,29.98,ESE,123,0.0,8.0,87,0.00,,SKC,0.00,VWS V14.00,2013-09-19 03:48:00,
2013-09-18 22:53:00,78.7,74.5,29.98,ESE,123,2.0,8.0,87,0.00,,SKC,0.00,VWS V14.00,2013-09-19 03:53:00,
2013-09-18 22:58:00,78.6,74.4,29.98,ESE,123,0.0,8.0,87,0.00,,SKC,0.00,VWS V14.00,2013-09-19 03:58:00,
2013-09-18 23:01:00,78.5,74.3,29.98,ESE,123,0.0,8.0,87,0.00,,SKC,0.00,VWS V14.00,2013-09-19 04:01:00,
2013-09-18 23:06:00,78.4,74.2,29.98,ESE,123,0.0,2.0,87,0.00,,SKC,0.00,VWS V14.00,2013-09-19 04:06:00,
2013-09-18 23:08:00,78.3,74.5,29.98,ESE,123,2.0,2.0,88,0.00,,SKC,0.00,VWS V14.00,2013-09-19 04:08:00,
2013-09-18 23:13:00,78.2,74.4,29.98,ESE,123,1.0,2.0,88,0.00,,SKC,0.00,VWS V14.00,2013-09-19 04:13:00,
2013-09-18 23:18:00,78.2,74.4,29.98,ESE,123,0.0,4.0,88,0.00,,SKC,0.00,VWS V14.00,2013-09-19 04:18:00,
2013-09-18 23:23:00,78.0,74.2,29.98,ESE,123,0.0,4.0,88,0.00,,SKC,0.00,VWS V14.00,2013-09-19 04:23:00,
2013-09-18 23:28:00,77.9,74.1,29.98,ESE,123,0.0,4.0,88,0.00,,SKC,0.00,VWS V14.00,2013-09-19 04:28:00,
2013-09-18 23:33:00,77.8,74.3,29.98,ESE,123,2.0,4.0,89,0.00,,SKC,0.00,VWS V14.00,2013-09-19 04:33:00,
2013-09-18 23:38:00,77.7,74.2,29.98,ESE,123,0.0,5.0,89,0.00,,SKC,0.00,VWS V14.00,2013-09-19 04:38:00,
2013-09-18 23:43:00,77.6,74.1,29.98,ESE,123,0.0,5.0,89,0.00,,SKC,0.00,VWS V14.00,2013-09-19 04:43:00,
2013-09-18 23:48:00,77.5,74.0,29.98,ESE,123,0.0,5.0,89,0.00,,SKC,0.00,VWS V14.00,2013-09-19 04:48:00,
2013-09-18 23:53:00,77.5,74.0,29.98,ESE,123,0.0,5.0,89,0.00,,SKC,0.00,VWS V14.00,2013-09-19 04:53:00,
2013-09-18 23:58:00,77.3,74.1,29.98,ESE,123,0.0,5.0,90,0.00,,SKC,0.00,VWS V14.00,2013-09-19 04:58:00,